[[{"header":{"parameterUnit":"m.s-1","parameterCategory":1,"la1":30.2991,"la2":30.254,"lo1":-89.0895,"lo2":-89.0444,"dy":0.0017,"dx":0.0017,"nx":28,"ny":28,"refTime":"2026-02-09T03:00:00:Z","depth":0,"parameterNumber":2,"parameterNumberName":"U-component_of_WINDS"},"data":[0,0,0,0,0,0,0,0,0,0,0,0,0,0,0,0,0,0,0,0,0,0,0,0,0,0,0,0,0,0,0,0,0,0,0,0,0,0,0,0,0,0,0,0,0,0,0,0,0,0,0,0,0,0,0,0,0,0,0.5763,0.5764,0,0.5872,0.5873,0.5875,0.5893,0.5892,0.5891,0.589,0.6001,0.6005,0.6008,0,0,0,0,0,0,0,0,0,0,0,0,0,0.557,0.5573,0.5763,0.5764,0.5766,0.5872,0.5874,0.5875,0.5893,0.5892,0.5891,0.589,0.6,0.6004,0.6009,0,0,0,0,0,0,0,0,0,0,0,0,0,0.5664,0.5574,0.5763,0.5788,0.5791,0.5872,0.5874,0.5875,0.5894,0.5892,0.5891,0.5889,0.5998,0.6004,0.6009,0.6072,0,0,0.6027,0.6029,0,0,0,0,0,0,0,0,0.5658,0.5671,0.5783,0.5786,0.579,0.5868,0.5846,0.5941,0.5894,0.5855,0.589,0.5889,0.5958,0.5967,0.599,0.6078,0.6082,0.6027,0.6031,0.6033,0.6035,0,0,0,0,0,0,0,0.5652,0.5666,0.5806,0.5784,0.5789,0.5793,0.5805,0.5864,0.5913,0.5858,0.586,0.5872,0.5959,0.5985,0.5993,0.6084,0.6027,0.6032,0.6036,0.6038,0.623,0.6232,0,0,0,0,0,0,0.5641,0.566,0.5803,0.5809,0.5719,0.5798,0.5811,0.5844,0.5912,0.5921,0.5873,0.5873,0.5975,0.5986,0.5997,0.6076,0.6033,0.6039,0.6042,0.6228,0.623,0.6232,0,0,0,0,0,0,0.5637,0.5653,0.5798,0.5735,0.5754,0.5803,0.584,0.5847,0.5872,0.5924,0.5932,0.589,0.5975,0.5989,0.6054,0.608,0.6041,0.6046,0.6226,0.6229,0.6231,0.6235,0,0,0,0,0,0,0.5631,0.5652,0.5676,0.5736,0.5758,0.5854,0.5841,0.585,0.5882,0.5882,0.5942,0.595,0.5975,0.6045,0.606,0.6087,0.6051,0.6224,0.6228,0.6231,0.6233,0.6237,0.6241,0,0,0,0,0,0.5624,0.5672,0.5677,0.5694,0.5789,0.5855,0.5868,0.5895,0.5884,0.5909,0.5943,0.5948,0.6075,0.6052,0.6068,0.6098,0.6223,0.6227,0.623,0.6231,0.6236,0.6241,0,0,0,0,0,0,0.5614,0.568,0.5687,0.5756,0.58,0.5858,0.5891,0.59,0.5948,0.5946,0.5978,0.5991,0.6055,0.6083,0.6056,0.6163,0.6148,0.6155,0.6143,0.6148,0.6153,0.6145,0.6056,0,0,0,0,0,0.5619,0.5668,0.5723,0.5779,0.5801,0.5842,0.5872,0.5889,0.5936,0.5954,0.5992,0.6037,0.6087,0.6119,0.6168,0.6236,0.625,0.6265,0.6269,0.6272,0.6279,0.6318,0.6326,0.6245,0.6245,0.6245,0,0,0.5632,0.5674,0.5703,0.5778,0.5814,0.5864,0.5857,0.5909,0.5947,0.5962,0.6027,0.6056,0.6108,0.6175,0.6207,0.6201,0.6304,0.6277,0.6279,0.6284,0.6323,0.633,0.6337,0.6247,0.6247,0.6246,0,0,0.568,0.5717,0.5768,0.5804,0.5859,0.5887,0.5899,0.5956,0.5977,0.6042,0.6055,0.6099,0.6184,0.6221,0.6251,0.6314,0.6321,0.6329,0.6351,0.6389,0.6396,0.6402,0.6425,0.6433,0.6334,0.6334,0.6334,0,0.5688,0.5764,0.5792,0.5845,0.5878,0.5895,0.5947,0.5981,0.6049,0.6071,0.6063,0.6171,0.6207,0.6284,0.63,0.6323,0.6338,0.6322,0.6392,0.6399,0.6405,0.6427,0.6436,0.6335,0.6335,0.6335,0.6335,0,0.5772,0.5824,0.5858,0.5925,0.5961,0.6013,0.605,0.6084,0.6098,0.6126,0.6193,0.6237,0.6295,0.6314,0.6329,0.6394,0.6389,0.6386,0.6372,0.6412,0.6434,0.6443,0.6336,0.6336,0.6335,0.6335,0,0,0.5816,0.5899,0.5911,0.5942,0.6004,0.6045,0.6098,0.6156,0.6184,0.623,0.6276,0.6348,0.6347,0.638,0.6399,0.6432,0.6481,0.6426,0.6428,0.6436,0.6557,0.6559,0.6568,0.6486,0.6488,0.6489,0.6553,0,0.5872,0.5968,0.5996,0.6076,0.6125,0.6142,0.6188,0.6232,0.6259,0.6305,0.6335,0.6386,0.638,0.6401,0.6434,0.6468,0.6506,0.6463,0.6529,0.6531,0.6516,0.658,0.6582,0.664,0.6561,0.6563,0.6564,0,0.5951,0.6,0.6085,0.6143,0.6164,0.6205,0.6261,0.6304,0.6354,0.6372,0.641,0.6426,0.6482,0.6463,0.6541,0.6512,0.654,0.656,0.6563,0.6571,0.655,0.659,0.6659,0.6667,0.6577,0.6576,0.6575,0,0.5976,0.6063,0.6126,0.6152,0.622,0.6248,0.6278,0.6326,0.636,0.6408,0.643,0.6484,0.6514,0.6556,0.6586,0.657,0.6661,0.6645,0.6678,0.6677,0.6697,0.6695,0.6772,0.6714,0.6713,0.6713,0.6713,0,0.6036,0.6088,0.6138,0.6177,0.6236,0.6267,0.6324,0.6355,0.6398,0.6443,0.646,0.6502,0.6539,0.6585,0.6609,0.667,0.6683,0.6699,0.6705,0.6698,0.6696,0.6718,0.6715,0.6716,0.6715,0.6715,0.6714,0,0.6074,0.611,0.618,0.6239,0.6255,0.6296,0.6347,0.6385,0.6414,0.647,0.6485,0.653,0.6586,0.662,0.669,0.6706,0.6774,0.6778,0.6758,0.6761,0.6792,0.6789,0.6885,0.69,0.6831,0.6831,0.6832,0,0.6111,0.6151,0.6215,0.6247,0.6278,0.6328,0.6363,0.6396,0.6431,0.6491,0.6522,0.6579,0.6627,0.6715,0.6754,0.6808,0.6814,0.6844,0.6822,0.6814,0.6815,0.6813,0.6818,0.6848,0.6848,0.6849,0.6849,0,0.6172,0.6188,0.6238,0.6294,0.6335,0.6381,0.6426,0.6451,0.6491,0.653,0.6588,0.6625,0.6698,0.6754,0.6812,0.6842,0.6853,0.6856,0.6866,0.686,0.6847,0.6856,0.6769,0.6854,0.6853,0.6853,0.6853,0.6852,0.6211,0.6248,0.63,0.6355,0.6393,0.6435,0.6474,0.6509,0.6558,0.662,0.6636,0.6697,0.6746,0.6825,0.6857,0.6905,0.69,0.6915,0.6919,0.6922,0.6924,0.6839,0.6915,0.6915,0.6915,0.6915,0.6915,0,0.6274,0.6308,0.6359,0.6422,0.6466,0.6473,0.6524,0.6559,0.6613,0.6658,0.6705,0.6772,0.6828,0.6871,0.6928,0.6958,0.6964,0.6972,0.697,0.6977,0.6924,0.691,0.6966,0.6966,0.6966,0.6966,0.6966,0.6966,0.6312,0.6376,0.6398,0.6481,0.6515,0.6576,0.6604,0.6644,0.668,0.6755,0.6801,0.6829,0.6874,0.6935,0.6986,0.6997,0.7018,0.7025,0.7037,0.6986,0.6981,0.6976,0.6962,0.7028,0.7029,0.7086,0.7087,0.7087]},{"header":{"parameterUnit":"m.s-1","parameterCategory":1,"la1":30.2991,"la2":30.254,"lo1":-89.0895,"lo2":-89.0444,"dy":0.0017,"dx":0.0017,"nx":28,"ny":28,"refTime":"2026-02-09T03:00:00:Z","depth":0,"parameterNumber":3,"parameterNumberName":"V-component_of_WINDS"},"data":[0,0,0,0,0,0,0,0,0,0,0,0,0,0,0,0,0,0,0,0,0,0,0,0,0,0,0,0,0,0,0,0,0,0,0,0,0,0,0,0,0,0,0,0,0,0,0,0,0,0,0,0,0,0,0,0,0,0,1.5523,1.5523,0,1.548,1.5479,1.5479,1.5445,1.5445,1.5445,1.5445,1.5401,1.5401,1.54,0,0,0,0,0,0,0,0,0,0,0,0,0,1.5578,1.5577,1.5523,1.5523,1.5522,1.548,1.5479,1.5479,1.5446,1.5445,1.5445,1.5444,1.5402,1.5401,1.54,0,0,0,0,0,0,0,0,0,0,0,0,0,1.5546,1.5577,1.5523,1.55,1.5498,1.548,1.5479,1.5478,1.5446,1.5445,1.5445,1.5444,1.5402,1.5401,1.54,1.5401,0,0,1.5396,1.5395,0,0,0,0,0,0,0,0,1.5548,1.5544,1.5504,1.5502,1.5499,1.5467,1.5483,1.5453,1.5446,1.5466,1.5445,1.5444,1.5424,1.5421,1.5414,1.5399,1.5397,1.5396,1.5395,1.5394,1.5394,0,0,0,0,0,0,0,1.555,1.5546,1.5506,1.5504,1.5501,1.5493,1.5488,1.5477,1.5448,1.5464,1.5461,1.5456,1.5422,1.5415,1.5412,1.5397,1.5396,1.5394,1.5394,1.5393,1.5381,1.5381,0,0,0,0,0,0,1.5556,1.5548,1.5507,1.5505,1.5523,1.5492,1.5486,1.5478,1.5448,1.5443,1.5457,1.5455,1.5417,1.5414,1.5411,1.5411,1.5394,1.5393,1.5392,1.538,1.5381,1.5381,0,0,0,0,0,0,1.5557,1.5553,1.5509,1.5526,1.5519,1.5491,1.5483,1.5478,1.547,1.5443,1.5438,1.5455,1.5417,1.5413,1.5404,1.5409,1.5392,1.5391,1.538,1.5381,1.5381,1.541,0,0,0,0,0,0,1.5559,1.5553,1.5553,1.5526,1.5519,1.5502,1.5483,1.5477,1.5468,1.5465,1.5439,1.5435,1.5416,1.5406,1.5402,1.5407,1.539,1.5379,1.538,1.5381,1.5409,1.5412,1.5415,0,0,0,0,0,1.5561,1.5564,1.5554,1.5549,1.5518,1.5503,1.5499,1.5477,1.5468,1.5468,1.5451,1.5435,1.5409,1.5405,1.5401,1.5405,1.5379,1.538,1.5381,1.5408,1.5411,1.5414,0,0,0,0,0,0,1.5593,1.556,1.5548,1.5542,1.5525,1.5497,1.5497,1.5482,1.5468,1.5466,1.544,1.5435,1.5428,1.5416,1.5412,1.5405,1.5392,1.5392,1.5413,1.5417,1.542,1.5423,1.5389,0,0,0,0,0,1.5599,1.5589,1.5561,1.5558,1.555,1.5525,1.5517,1.5502,1.5484,1.5477,1.5459,1.5442,1.543,1.5423,1.541,1.5407,1.5401,1.5407,1.541,1.5413,1.5413,1.5411,1.5413,1.5385,1.5385,1.5385,0,0,1.5612,1.5593,1.5588,1.5564,1.5549,1.554,1.5519,1.551,1.5503,1.5476,1.5466,1.5452,1.5432,1.5426,1.5422,1.5415,1.542,1.5414,1.5416,1.5415,1.5412,1.5415,1.5417,1.5385,1.5385,1.5385,0,0,1.5631,1.5615,1.5611,1.5597,1.5575,1.5558,1.5557,1.5531,1.552,1.551,1.549,1.5481,1.546,1.5447,1.5437,1.545,1.5436,1.5447,1.5462,1.546,1.5462,1.5464,1.5469,1.5471,1.5448,1.5448,1.5448,0,1.565,1.5635,1.5611,1.5603,1.5593,1.5567,1.5563,1.5551,1.5526,1.552,1.5512,1.5485,1.547,1.546,1.5463,1.5456,1.5455,1.545,1.5464,1.5465,1.5467,1.5471,1.5473,1.5449,1.5449,1.5449,1.5449,0,1.5659,1.5649,1.5648,1.5624,1.5614,1.5608,1.5584,1.5576,1.5562,1.5546,1.5536,1.5516,1.5499,1.5496,1.5482,1.5484,1.548,1.5468,1.5455,1.5471,1.5475,1.5477,1.5451,1.5451,1.545,1.545,0,0,1.5698,1.566,1.5661,1.5649,1.5623,1.5615,1.5607,1.559,1.5584,1.5568,1.5561,1.5544,1.5533,1.5522,1.5506,1.5504,1.5516,1.5493,1.5492,1.5498,1.5518,1.5527,1.553,1.5506,1.5507,1.5507,1.552,0,1.5713,1.5698,1.5676,1.5669,1.5659,1.5634,1.5628,1.5611,1.5596,1.5585,1.5569,1.5557,1.5543,1.5536,1.5533,1.5516,1.552,1.5514,1.55,1.55,1.5507,1.5532,1.5541,1.5555,1.5521,1.5521,1.5521,0,1.5728,1.5713,1.5704,1.5678,1.5673,1.5668,1.565,1.564,1.5621,1.561,1.5598,1.558,1.5572,1.5559,1.5547,1.5544,1.5537,1.5527,1.5527,1.5525,1.5512,1.5531,1.5558,1.5561,1.5523,1.5523,1.5523,0,1.5757,1.5734,1.5726,1.5717,1.5687,1.5684,1.5671,1.5651,1.5642,1.5626,1.562,1.5604,1.5596,1.5584,1.5563,1.5556,1.5553,1.5539,1.5544,1.5545,1.5545,1.5546,1.5572,1.554,1.554,1.554,1.554,0,1.5777,1.5772,1.5739,1.5734,1.5729,1.5704,1.5699,1.5684,1.5666,1.5658,1.5636,1.5629,1.5601,1.5591,1.5575,1.5567,1.5564,1.5555,1.5551,1.5557,1.5558,1.5552,1.5551,1.5541,1.5541,1.554,1.554,0,1.5809,1.5786,1.5775,1.5747,1.574,1.5737,1.5713,1.5708,1.5691,1.5681,1.5677,1.5651,1.5638,1.5615,1.5596,1.5585,1.5581,1.5573,1.5587,1.5585,1.5591,1.5591,1.5616,1.5618,1.5584,1.5584,1.5585,0,1.5823,1.5819,1.579,1.5783,1.5771,1.5759,1.575,1.5725,1.5716,1.5693,1.569,1.5675,1.5662,1.5642,1.5622,1.5607,1.5599,1.5608,1.5597,1.5603,1.5599,1.56,1.56,1.5612,1.5612,1.5612,1.5613,0,1.585,1.5839,1.5826,1.5809,1.5798,1.5783,1.5768,1.5763,1.5735,1.5726,1.5712,1.5701,1.5681,1.5666,1.5648,1.5636,1.562,1.5616,1.5617,1.5624,1.5632,1.5628,1.5595,1.5616,1.5616,1.5616,1.5615,1.5615,1.5874,1.5869,1.5848,1.5834,1.5819,1.5805,1.5798,1.5781,1.5768,1.5749,1.5735,1.5723,1.5703,1.5677,1.5665,1.5655,1.5647,1.5648,1.5648,1.5649,1.5652,1.5633,1.5651,1.5651,1.5651,1.5651,1.5651,0,1.59,1.5885,1.5873,1.5851,1.584,1.5825,1.5807,1.5799,1.5788,1.577,1.5758,1.5741,1.5727,1.5705,1.5689,1.5685,1.5678,1.5682,1.5682,1.568,1.5659,1.566,1.5688,1.5688,1.5688,1.5688,1.5688,1.5688,1.5913,1.5904,1.589,1.5874,1.5859,1.5846,1.5837,1.5824,1.581,1.5793,1.578,1.5766,1.5747,1.5729,1.5715,1.5709,1.5705,1.5712,1.5703,1.5684,1.5681,1.5678,1.5679,1.5711,1.5711,1.5725,1.5725,1.5725]}]]